Flag for Thailand Weather past 2 weeks in Phuket, Thailand

Now
84 °F

Passing clouds.


Feels Like: 87 °F
Forecast: 78 / 91 °F
Wind: 8 mph from Southeast

Location: Phuket Airport

Current Time: Mar 30, 2015 at 1:08:24 AM

Latest Report: Mar 30, 2015 at 12:30 AM


Visibility: 6 mi

Pressure: 29.86 "Hg

Humidity: 58%

Dew point: 68 °F

Location of PhuketLocation

Historic Weather in Phuket — Graph

°F

Phuket temperature yesterday

Maximum temperature yesterday: 95 °F (at 1:00 PM)
Minimum temperature yesterday: 77 °F (at 3:00 AM)
Average temperature yesterday: 85 °F

Past Weeks' High & Low Weather Summary

 TemperatureHumidityPressure
High97 °F (Mar 27, 3:00 PM)94% (Mar 15, 6:00 AM)30.01 "Hg (Mar 15, 6:00 AM)
Low70 °F (Mar 15, 6:00 AM)30% (Mar 15, 12:00 PM)29.77 "Hg (Mar 18, 3:30 PM)
Average85 °F66%29.87 "Hg
* Reported Midnight between Mar 14 and Mar 15 — Midnight between Mar 29 and Mar 30, Phuket, Weather by CustomWeather, © 2015

Note: Actual official high and low records may vary slightly from our data, if they occured in-between our weather recording intervals... More about our weather records

Advertising

Phuket weather history for previous 24 hours

 ConditionsComfort  
Time TempWeatherWind HumidityBarometerVisibility
12:00 AM
Mon, Mar 30
84 °FPassing clouds.10 mph58%29.86 "Hg6 mi
11:30 PM
Sun, Mar 29
82 °FPassing clouds.7 mph70%29.89 "Hg6 mi
11:00 PM79 °FPassing clouds.1 mph84%29.89 "Hg6 mi
10:30 PM81 °FPassing clouds.1 mph79%29.89 "Hg6 mi
10:00 PM82 °FPassing clouds.2 mph74%29.89 "Hg6 mi
9:30 PM82 °FPassing clouds.1 mph74%29.86 "Hg6 mi
9:00 PM84 °FPassing clouds.5 mph70%29.86 "Hg6 mi
8:30 PM84 °FPassing clouds.6 mph70%29.83 "Hg6 mi
8:00 PM84 °FPassing clouds.8 mph70%29.83 "HgN/A
7:30 PM84 °FPassing clouds.9 mph70%29.83 "HgN/A
7:00 PM84 °FPassing clouds.6 mph70%29.80 "HgN/A
6:30 PM86 °FScattered clouds.7 mph62%29.80 "HgN/A
6:00 PM88 °FScattered clouds.14 mph59%29.80 "HgN/A
5:30 PM88 °FScattered clouds.13 mph59%29.80 "HgN/A
5:00 PM90 °FPassing clouds.14 mph55%29.80 "HgN/A
4:30 PM90 °FPassing clouds.13 mph59%29.77 "HgN/A
4:00 PM90 °FPassing clouds.14 mph59%29.77 "HgN/A
3:30 PM90 °FPassing clouds.12 mph55%29.77 "HgN/A
3:00 PM91 °FPassing clouds.7 mph52%29.80 "HgN/A
2:30 PM91 °FPassing clouds.6 mph56%29.80 "HgN/A
2:00 PM95 °FPassing clouds.12 mph36%29.80 "HgN/A
1:30 PM95 °FPassing clouds.14 mph39%29.83 "HgN/A
1:00 PM95 °FPassing clouds.14 mph39%29.83 "HgN/A
12:30 PM93 °FPassing clouds.10 mph44%29.86 "HgN/A
12:00 PM93 °FPassing clouds.13 mph44%29.89 "HgN/A
11:30 AM91 °FPassing clouds.13 mph49%29.89 "HgN/A
11:00 AM90 °FPassing clouds.10 mph52%29.89 "HgN/A
10:30 AM90 °FPassing clouds.9 mph52%29.89 "HgN/A
10:00 AM88 °FPassing clouds.12 mph59%29.89 "HgN/A
9:30 AM88 °FPassing clouds.14 mph55%29.89 "HgN/A
9:00 AM88 °FPassing clouds.10 mph59%29.89 "HgN/A
8:00 AM84 °FPassing clouds.9 mph66%29.86 "HgN/A
7:00 AM81 °FScattered clouds.8 mph70%29.86 "HgN/A
6:30 AM79 °FScattered clouds.7 mph74%29.83 "HgN/A
5:30 AM77 °FPassing clouds.No wind79%29.80 "HgN/A
5:00 AM79 °FPassing clouds.No wind74%29.80 "HgN/A
4:30 AM79 °FPassing clouds.3 mph74%29.80 "HgN/A
4:00 AM77 °FPassing clouds.6 mph79%29.80 "HgN/A
3:30 AM77 °FPassing clouds.No wind79%29.80 "HgN/A
3:00 AM77 °FPassing clouds.No wind79%29.83 "HgN/A
1:30 AM81 °FPassing clouds.No wind70%29.83 "HgN/A
1:00 AM82 °FPassing clouds.No wind66%29.86 "HgN/A
Weather by CustomWeather, © 2015

See weather overviewHow to use our weather pages